Regional Weather Roundup
Issued by NWS

Home | Current Version | Previous Version | Graphics & Text | Print | Product List | Glossary On
Versions: 1 2 3 4 5 6 7 8 9 10 11 12 13 14 15 16 17 18 19 20 21 22 23 24 25 26 27 28 29 30 31 32 33 34 35 36 37 38 39 40 41 42 43 44 45 46 47 48 49 50
000
ASUS43 KDTX 262001
RWRMI
MICHIGAN HOURLY REGIONAL WEATHER ROUNDUP
NATIONAL WEATHER SERVICE DETROIT/PONTIAC MI
400 PM EDT SAT MAY 26 2018

NOTE: "FAIR" INDICATES FEW OR NO CLOUDS BELOW 12,000 FEET WITH NO
SIGNIFICANT WEATHER AND/OR OBSTRUCTION TO VISIBILITY.

MIZ047>049-052>055-059>063-066>070-074>076-081>083-262100-
SOUTHEAST LOWER MICHIGAN

CITY           SKY/WX    TMP DP  RH WIND       PRES   REMARKS
ADRIAN         FAIR      83  66  56 NW9       29.78F
ALMA           FAIR      85  66  53 S8G21     29.75F
ANN ARBOR      FAIR      80  68  66 E3        29.79F
BAD AXE        FAIR      84  62  47 S10       29.76F
CARO           FAIR      84  63  49 S6        29.75F
DETROIT CITY   PTSUNNY   80  62  54 SE10      29.78F
DETROIT        LGT RAIN  77  66  68 S9        29.79F
FLINT          FAIR      82  63  52 S7        29.77F
GROSSE ILE     LGT RAIN  69  66  89 S5        29.79F
HILLSDALE      PTSUNNY   81  64  57 SW5       29.79S
HOWELL         PTSUNNY   81  64  55 SE7       29.78F

CITY           SKY/WX    TMP DP  RH WIND       PRES   REMARKS
JACKSON        PTSUNNY   79  69  71 SE6       29.78S
LAMBERTVILLE   PTSUNNY   83  64  52 S5        29.77F
LANSING        FAIR      85  65  51 VRB6      29.76F
LAPEER         FAIR      82  58  44 SW9       29.78F
MASON          FAIR      84  62  47 SW5       29.77F
MONROE         CLOUDY    73  71  93 NE6       29.79S
PONTIAC        PTSUNNY   80  64  58 VRB7      29.78F
PORT HOPE        N/A     65  60  84 E5        29.76F
PORT HURON     PTSUNNY   75  64  69 S7        29.80S
TRI CITIES     FAIR      83  65  54 S8        29.75F
MIDLAND        FAIR      85  65  50 S6        29.74F
TROY           FAIR      81  60  48 E3        29.81F
SAGINAW HB     PTSUNNY   84  61  45 SW12G17   29.75F
$$
MIZ043>046-050>051-056>058-064>065-071>073-077>080-262100-
SOUTHWEST LOWER MICHIGAN

CITY           SKY/WX    TMP DP  RH WIND       PRES   REMARKS
BATTLE CREEK   FAIR      85  61  44 NW12G17   29.78F
BENTON HARBOR  FAIR      79  61  53 W6        29.78F
BIG RAPIDS     FAIR      84  61  46 W8        29.74F
COLDWATER      FAIR      86  55  33 W7        29.78S
FREMONT        FAIR      84  65  53 SW9       29.75S
HOLLAND        FAIR      80  62  54 W9        29.78F
GRAND RAPIDS   FAIR      83  65  54 SW8       29.76F
IONIA          FAIR      85  63  46 W10       29.75F
KALAMAZOO      FAIR      85  58  39 W10       29.78S
LUDINGTON      FAIR      69  63  82 W8        29.76S
MARSHALL       FAIR      85  61  43 SW6       29.77S
MOUNT PLEASANT FAIR      85  63  47 S5        29.74F
MUSKEGON       FAIR      74  62  66 W9        29.78S
SOUTH HAVEN    FAIR      79  60  52 W7        29.79S
$$
MIZ016>042-262100-
NORTHERN LOWER MICHIGAN

CITY           SKY/WX    TMP DP  RH WIND       PRES   REMARKS
ALPENA         FAIR      68  58  70 SE9       29.76S
BEAVER ISLAND  FAIR      78  59  52 NW5       29.74F
BELLAIRE       FAIR      86  62  45 W6        29.72S
CADILLAC       PTSUNNY   83  64  52 SW9       29.74F
CHARLEVOIX     FAIR      68  59  72 N3        29.77F
FRANKFORT      FAIR      71  61  72 NW3       29.75S
GAYLORD        CLOUDY    82  60  47 CALM      29.74F
GRAYLING       FAIR      77  63  61 S5        29.73F
HARBOR SPRINGS FAIR      70  58  67 S5        29.74S
HOUGHTON LAKE  FAIR      81  61  50 S7        29.74F
MANISTEE       FAIR      78  65  63 W13       29.74R
OSCODA         FAIR      83  58  43 SE10      29.73F
PELLSTON       FAIR      84  62  47 CALM      29.74S
ROGERS CITY    FAIR      67  58  72 E9        29.77S
TRAVERSE CITY  FAIR      81  64  56 NE8       29.69F
$$
MIZ007>008-015-262100-
EASTERN UPPER MICHIGAN

CITY           SKY/WX    TMP DP  RH WIND       PRES   REMARKS
KINROSS        FAIR      80  62  54 SE9       29.75F
MACKINAC ISLAN FAIR      65  59  79 E13G22    29.76F
NEWBERRY       FAIR      78  63  59 S10       29.73F
S. S. MARIE    FAIR      78  64  61 E9        29.75F
$$
MIZ004>006-011>014-085-262100-
CENTRAL UPPER MICHIGAN

CITY           SKY/WX    TMP DP  RH WIND       PRES   REMARKS
MANISTIQUE     FAIR      65  64  94 S6        29.74F
ESCANABA       FAIR      63  57  81 SE10      29.72S
MENOMINEE      FAIR      83  63  50 SE12      29.70F
SAWYER-GWINN   TSTM      66  63  88 SW8       29.74S
$$
MIZ001>003-009>011-084-262100-
WESTERN UPPER MICHIGAN

CITY           SKY/WX    TMP DP  RH WIND       PRES   REMARKS
IRON MOUNTAIN  FAIR      89  60  37 S12       29.66F
HOUGHTON       FAIR      81  58  45 SE14      29.66S
COPPER HARBOR    N/A     52  45  77 CALM      29.68F
IRONWOOD       FAIR      87  55  33 W13       29.66F
$$

ABBREVIATIONS USED IN REMARKS
   TC - TEMPERATURE IN CELSIUS
  WCI - WIND CHILL INDEX
   HX - HEAT INDEX
  VSB - VISIBILITY




USA.gov is the U.S. government's official web portal to all federal, state and local government web resources and services.